Hourly Weather Diapaga

Today, 7 August, Friday

Time Temperature Precipitation Wind Pressure Humidity
00:00 +26°C° 0 mm 6 mps 735 mmHg 74%
01:00 +26°C° 1.1 mm 5 mps 735 mmHg 78%
02:00 +25°C° 1.1 mm 4 mps 735 mmHg 83%
03:00 +25°C° 1.1 mm 3 mps 735 mmHg 88%
04:00 +24°C° 1 mm 3 mps 735 mmHg 89%
05:00 +23°C° 1 mm 4 mps 736 mmHg 91%
06:00 +23°C° 0 mm 4 mps 736 mmHg 92%
07:00 +23°C° 1 mm 4 mps 736 mmHg 92%
08:00 +23°C° 1 mm 5 mps 736 mmHg 92%
09:00 +23°C° 1 mm 5 mps 736 mmHg 92%
10:00 +25°C° 0 mm 5 mps 736 mmHg 89%
11:00 +25°C° 0 mm 5 mps 736 mmHg 86%
12:00 +25°C° 0 mm 4 mps 736 mmHg 89%
13:00 +25°C° 0.4 mm 4 mps 735 mmHg 90%
14:00 +25°C° 0.4 mm 3 mps 734 mmHg 91%
15:00 +25°C° 0.4 mm 3 mps 734 mmHg 92%
16:00 +25°C° 0.6 mm 3 mps 734 mmHg 92%
17:00 +25°C° 0.6 mm 2 mps 735 mmHg 93%
18:00 +25°C° 0.6 mm 1 mps 735 mmHg 94%
19:00 +25°C° 0.9 mm 2 mps 735 mmHg 94%
20:00 +25°C° 0.9 mm 2 mps 736 mmHg 95%
21:00 +25°C° 0.9 mm 2 mps 737 mmHg 95%
22:00 +25°C° 1.2 mm 3 mps 737 mmHg 95%
23:00 +25°C° 1.2 mm 3 mps 737 mmHg 95%

Tomorrow, 8 August, Saturday

Time Temperature Precipitation Wind Pressure Humidity
00:00 +25°C° 1.2 mm 3 mps 737 mmHg 95%
01:00 +24°C° 0.2 mm 3 mps 736 mmHg 95%
02:00 +24°C° 0.2 mm 3 mps 736 mmHg 95%
03:00 +24°C° 0.2 mm 3 mps 736 mmHg 95%
04:00 +24°C° 0.1 mm 3 mps 736 mmHg 94%
05:00 +24°C° 0.1 mm 3 mps 737 mmHg 94%
06:00 +24°C° 0.1 mm 3 mps 737 mmHg 94%
07:00 +23°C° 0 mm 4 mps 737 mmHg 91%
08:00 +25°C° 0 mm 4 mps 738 mmHg 89%
09:00 +25°C° 0 mm 5 mps 738 mmHg 86%
10:00 +27°C° 0 mm 5 mps 738 mmHg 81%
11:00 +28°C° 0 mm 5 mps 738 mmHg 76%
12:00 +29°C° 0 mm 5 mps 737 mmHg 71%
13:00 +29°C° 0.3 mm 5 mps 737 mmHg 71%
14:00 +30°C° 0.3 mm 4 mps 736 mmHg 70%
15:00 +30°C° 0.3 mm 4 mps 735 mmHg 70%
16:00 +29°C° 0.4 mm 3 mps 735 mmHg 74%
17:00 +28°C° 0.4 mm 3 mps 736 mmHg 78%
18:00 +27°C° 0.4 mm 2 mps 736 mmHg 83%
19:00 +27°C° 0.1 mm 2 mps 736 mmHg 85%
20:00 +26°C° 0.1 mm 2 mps 737 mmHg 87%
21:00 +25°C° 0.1 mm 2 mps 737 mmHg 90%
22:00 +25°C° 0 mm 2 mps 737 mmHg 90%
23:00 +25°C° 0 mm 3 mps 737 mmHg 91%

Day after tomorrow, 9 August, Sunday

Time Temperature Precipitation Wind Pressure Humidity
00:00 +25°C° 0 mm 3 mps 737 mmHg 91%
01:00 +25°C° 0 mm 3 mps 736 mmHg 91%
02:00 +24°C° 0 mm 3 mps 736 mmHg 91%
03:00 +24°C° 0 mm 3 mps 736 mmHg 91%
04:00 +24°C° 0 mm 3 mps 736 mmHg 92%
05:00 +24°C° 0 mm 3 mps 736 mmHg 92%
06:00 +24°C° 0 mm 3 mps 736 mmHg 92%
07:00 +25°C° 0 mm 4 mps 737 mmHg 89%
08:00 +26°C° 0 mm 4 mps 737 mmHg 85%
09:00 +27°C° 0 mm 5 mps 737 mmHg 81%
10:00 +28°C° 0.1 mm 5 mps 737 mmHg 76%
11:00 +29°C° 0.1 mm 5 mps 737 mmHg 72%
12:00 +30°C° 0.1 mm 5 mps 737 mmHg 67%
13:00 +30°C° 1.2 mm 5 mps 736 mmHg 69%
14:00 +30°C° 1.2 mm 4 mps 735 mmHg 70%
15:00 +30°C° 1.2 mm 4 mps 734 mmHg 72%
16:00 +29°C° 0.8 mm 4 mps 734 mmHg 77%
17:00 +28°C° 0.8 mm 3 mps 734 mmHg 81%
18:00 +27°C° 0.8 mm 3 mps 734 mmHg 85%
19:00 +27°C° 0.1 mm 3 mps 734 mmHg 86%
20:00 +26°C° 0.1 mm 3 mps 735 mmHg 87%
21:00 +26°C° 0.1 mm 2 mps 735 mmHg 88%
22:00 +25°C° 0 mm 3 mps 735 mmHg 89%
23:00 +25°C° 0 mm 3 mps 735 mmHg 90%

10 August, Monday

Time Temperature Precipitation Wind Pressure Humidity
00:00 +25°C° 0 mm 3 mps 735 mmHg 90%
01:00 +25°C° 0.1 mm 3 mps 734 mmHg 91%
02:00 +24°C° 0.1 mm 3 mps 734 mmHg 91%
03:00 +24°C° 0.1 mm 3 mps 734 mmHg 91%
04:00 +24°C° 0.1 mm 3 mps 734 mmHg 90%
05:00 +24°C° 0.1 mm 3 mps 734 mmHg 90%
06:00 +23°C° 0.1 mm 4 mps 735 mmHg 90%
07:00 +25°C° 0.1 mm 4 mps 735 mmHg 85%
08:00 +26°C° 0.1 mm 5 mps 735 mmHg 80%
09:00 +27°C° 0.1 mm 5 mps 736 mmHg 75%
10:00 +28°C° 0 mm 5 mps 735 mmHg 72%
11:00 +29°C° 0 mm 5 mps 735 mmHg 69%
12:00 +30°C° 0 mm 5 mps 735 mmHg 66%
13:00 +30°C° 0.5 mm 5 mps 734 mmHg 67%
14:00 +32°C° 0.5 mm 5 mps 733 mmHg 67%
15:00 +32°C° 0.5 mm 5 mps 733 mmHg 68%
16:00 +30°C° 0 mm 4 mps 733 mmHg 71%
17:00 +29°C° 0 mm 4 mps 733 mmHg 75%
18:00 +28°C° 0 mm 3 mps 733 mmHg 79%
19:00 +28°C° 0 mm 3 mps 733 mmHg 79%
20:00 +27°C° 0 mm 3 mps 734 mmHg 80%
21:00 +27°C° 0 mm 4 mps 735 mmHg 80%
22:00 +26°C° 0 mm 4 mps 735 mmHg 80%
23:00 +26°C° 0 mm 4 mps 735 mmHg 81%

11 August, Tuesday

Time Temperature Precipitation Wind Pressure Humidity
00:00 +26°C° 0 mm 4 mps 735 mmHg 81%
01:00 +26°C° 0 mm 4 mps 735 mmHg 81%
02:00 +25°C° 0 mm 3 mps 734 mmHg 82%
03:00 +25°C° 0 mm 3 mps 734 mmHg 82%
04:00 +25°C° 0 mm 3 mps 734 mmHg 82%
05:00 +24°C° 0 mm 3 mps 735 mmHg 83%
06:00 +24°C° 0 mm 3 mps 735 mmHg 83%
07:00 +25°C° 0 mm 4 mps 736 mmHg 80%
08:00 +26°C° 0 mm 4 mps 736 mmHg 76%
09:00 +27°C° 0 mm 5 mps 737 mmHg 72%
10:00 +28°C° 0 mm 5 mps 737 mmHg 71%
11:00 +28°C° 0 mm 5 mps 737 mmHg 70%
12:00 +29°C° 0 mm 5 mps 736 mmHg 69%
13:00 +29°C° 0 mm 5 mps 736 mmHg 69%
14:00 +29°C° 0 mm 5 mps 735 mmHg 68%
15:00 +29°C° 0 mm 5 mps 735 mmHg 68%
16:00 +28°C° 0 mm 4 mps 735 mmHg 72%
17:00 +27°C° 0 mm 3 mps 735 mmHg 75%
18:00 +26°C° 0 mm 3 mps 735 mmHg 79%
19:00 +26°C° 0 mm 2 mps 735 mmHg 80%
20:00 +26°C° 0 mm 2 mps 736 mmHg 81%
21:00 +25°C° 0 mm 2 mps 736 mmHg 81%
22:00 +25°C° 0 mm 2 mps 736 mmHg 83%
23:00 +25°C° 0 mm 1 mps 736 mmHg 85%

12 August, Wednesday

Time Temperature Precipitation Wind Pressure Humidity
00:00 +25°C° 0 mm 1 mps 736 mmHg 87%
01:00 +24°C° 0 mm 1 mps 736 mmHg 88%
02:00 +24°C° 0 mm 1 mps 736 mmHg 88%
03:00 +24°C° 0 mm 1 mps 736 mmHg 89%
04:00 +24°C° 0 mm 2 mps 736 mmHg 89%
05:00 +24°C° 0 mm 2 mps 736 mmHg 90%
06:00 +24°C° 0 mm 2 mps 736 mmHg 90%
07:00 +25°C° 0 mm 2 mps 736 mmHg 83%
08:00 +27°C° 0 mm 3 mps 737 mmHg 77%
09:00 +29°C° 0 mm 3 mps 737 mmHg 70%
10:00 +29°C° 0.8 mm 3 mps 737 mmHg 70%
11:00 +30°C° 0.8 mm 3 mps 737 mmHg 69%
12:00 +30°C° 0.8 mm 3 mps 736 mmHg 69%
13:00 +30°C° 0.9 mm 2 mps 736 mmHg 68%
14:00 +31°C° 0.9 mm 2 mps 735 mmHg 68%
15:00 +31°C° 0.9 mm 2 mps 734 mmHg 67%
16:00 +30°C° 1.7 mm 2 mps 734 mmHg 73%
17:00 +29°C° 1.7 mm 1 mps 734 mmHg 79%
18:00 +27°C° 1.7 mm 1 mps 734 mmHg 85%
19:00 +27°C° 0.6 mm 1 mps 735 mmHg 86%
20:00 +26°C° 0.6 mm 1 mps 735 mmHg 87%
21:00 +26°C° 0.6 mm 1 mps 736 mmHg 88%
22:00 +26°C° 0 mm 1 mps 736 mmHg 89%
23:00 +25°C° 0 mm 1 mps 736 mmHg 89%
Show more